Location: St. Louis
(38.6270°N, 90.1994°W)
Time: 08:27:38
(UTC-06:00)

Vanguard 2 Rocket - Pass Details

Date: 04 December 2021
Orbit: 553 x 3325 km, 32.9° (Epoch: 22 January)

Event Time Altitude Azimuth Distance (km) Brightness Sun altitude
Rises 22:20:22 0° 274° (W) 4,477 10.8 -64.7°
Enters shadow 22:21:44 - 272° (W) 4,117 10.5 -64.9°
Reaches altitude 10° 22:23:01 10° 268° (W) 3,802 - -65.1°
Maximum altitude 22:32:58 46° 199° (SSW) 2,841 - -66.7°
Drops below altitude 10° 22:49:03 10° 134° (SE) 5,968 - -69.0°
Sets 22:54:30 0° 130° (SE) 7,192 - -69.7°
